Location: Unspecified
(17.6330°N, 0.0000°E)
Time: 11:16:25
(UTC+00:00)

Courier 1B - Visible Passes

Search period start: 05 August 2020 00:00
Search period end: 15 August 2020 00:00
Orbit: 962 x 1209 km, 28.3° (Epoch: 04 August)

Date Brightness Start Highest point End Pass type
(mag) Time Alt. Az. Time Alt. Az. Time Alt. Az.
05 Aug 10.0 02:24:19 11° ESE 02:24:19 11° ESE 02:24:33 10° ESE visible
05 Aug 8.2 04:11:17 32° SW 04:11:48 33° SSW 04:17:51 10° SSE visible
05 Aug 7.9 19:32:43 10° WSW 19:39:49 67° NNW 19:46:31 10° ENE visible
05 Aug 8.8 21:28:19 10° WNW 21:33:43 34° NNW 21:33:43 34° NNW visible
06 Aug 9.1 03:21:55 23° SSE 03:21:55 23° SSE 03:24:27 10° SE visible
06 Aug 9.3 05:09:45 10° SW 05:12:04 12° SSW 05:14:25 10° S visible
06 Aug 7.8 18:38:34 10° WSW 18:45:56 85° NNW 18:52:50 10° ENE visible
06 Aug 8.6 20:33:59 10° W 20:40:29 40° NNW 20:43:31 26° NE visible
06 Aug 10.1 22:29:34 10° WNW 22:30:25 13° NW 22:30:25 13° NW visible
07 Aug 9.1 04:19:26 17° SSW 04:19:26 17° SSW 04:22:30 10° S visible
07 Aug 8.5 19:39:36 10° W 19:46:29 47° NNW 19:52:59 10° ENE visible
07 Aug 9.1 21:35:24 10° WNW 21:40:06 30° NNW 21:40:06 30° NNW visible
08 Aug 8.4 18:45:16 10° W 18:52:31 57° NNW 18:59:19 10° ENE visible
08 Aug 8.8 20:41:06 10° WNW 20:47:23 34° N 20:49:43 27° NNE visible
08 Aug 10.2 22:36:15 10° WNW 22:36:36 11° NW 22:36:36 11° NW visible
09 Aug 8.8 19:46:42 10° WNW 19:53:18 37° N 19:59:16 11° NE visible
09 Aug 9.2 21:42:14 10° WNW 21:46:08 28° NNW 21:46:08 28° NNW visible
10 Aug 8.8 18:52:16 10° W 18:59:15 43° NNW 19:05:49 10° ENE visible
10 Aug 8.7 20:48:04 10° WNW 20:54:20 33° N 20:55:38 31° NNE visible
11 Aug 8.9 19:53:45 10° WNW 20:00:14 34° N 20:05:06 15° NE visible
11 Aug 9.4 21:48:48 10° WNW 21:51:58 26° NW 21:51:58 26° NW visible
12 Aug 9.0 18:59:21 10° WNW 19:06:06 36° N 19:12:30 10° ENE visible
12 Aug 8.6 20:54:46 10° WNW 21:01:17 38° N 21:01:25 38° N visible
13 Aug 8.8 20:00:36 10° WNW 20:07:12 36° N 20:10:50 22° NE visible
13 Aug 9.6 21:55:12 10° WNW 21:57:43 23° NW 21:57:43 23° NW visible
14 Aug 8.9 19:06:20 10° WNW 19:13:03 35° N 19:19:25 10° ENE visible
14 Aug 8.4 21:01:14 10° WNW 21:07:08 46° N 21:07:08 46° N visible
